Orbital Elements at Epoch 2459200.5 (2020-Dec-17.0) TDB
Reference: JPL 14 (heliocentric ecliptic J2000)
Element | Value | Uncertainty (1-sigma) | Units |
e | .2909045589769243 | 4.8181e-08 | |
a | 2.568357182915348 | 1.3102e-08 | au |
q | 1.821210369324142 | 1.2637e-07 | au |
i | 4.679856258914834 | 6.2035e-06 | deg |
node | 266.8435194209209 | 7.5114e-05 | deg |
peri | 109.6378350341743 | 7.7558e-05 | deg |
M | 66.64760330964998 | 2.1775e-05 | deg |
tp | 2458922.167708979997 (2020-Mar-13.66770898) | 8.916e-05 | TDB |
period | 1503.424276213893 4.12 | 1.1504e-05 3.15e-08 | d yr |
n | .2394533636949085 | 1.8323e-09 | deg/d |
Q | 3.315503996506552 | 1.6914e-08 | au |
|
| | Orbit Determination Parameters
Additional Information
|